User: anonymous   Login
Location: Clinton NY
(43.0598°N, 75.3602°W)
Time: 04:23:55
(UTC-04:00)
Language:

Cosmos-2242 - Orbit

View from above orbital plane
View from above orbital plane
View from above satellite
View from above satellite

Ground track
Ground track

The orbit data is extracted from the following two-line orbital elements,

1 22626U 93024A   18145.27561311 +.00000179 +00000-0 +16775-4 0  9998
2 22626 082.5230 079.2860 0020534 067.0952 293.2430 14.87802500356715
Epoch (UTC): 25 May 2018 06:36:52
Eccentricity: 0.0020534
inclination: 82.5230°
perigee height: 590 km
apogee height: 619 km
right ascension of ascending node: 79.2860°
argument of perigee: 67.0952°
revolutions per day: 14.87802500
mean anomaly at epoch: 293.2430°
orbit number at epoch: 35671

The dashed part of the orbit path shows where the satellite is in the earth's shadow,  

DLR